STARLINK-1227, 45230

Orbit data source: Space-Track

STARLINK-1227, 45230 is a payload satellite owned by SpaceX/Seattle (US) in LEO that was launched on Mon, 17 Feb 2020 UTC via an FALCON 9 launch vehicle from the Air Force Eastern Test Range (AFETR). Payload-class satellites include a variety of spacecraft equipped with specific instruments for various scientific and technological missions. These include communications satellites like Starlink; space stations such as the ISS; scientific satellites like the Hubble; Earth observation satellites from companies like Planet Labs, Umbra, and HawkEye 360; GPS; miniature CubeSats for education and research; and military/defense satellites.

Loading next visibility...
Identifier
45230, 2020-012BE
Orbit
LEO
Country
Flag of USUS
Related business
Manufacturer
SpaceX/Seattle
Mission
Operational Commercial Communications
Bus & Motor
STARLINK, Unknown motor
Mass
260 kg wet, ~248 kg dry
Launch date (UTC)
2020-02-17 (6 years ago)
Launch vehicle
FALCON 9
Launch site
Air Force Eastern Test Range (AFETR)
Object type
Payload
Rocket body
Debris
Shape & HBR
Box + 1 Pan, 10.1 m
Radar Cross Section
13.562 m², Large (>1 m²)

Expand to show TLE details & history
Last TLE update: 8 hours ago

TLE from 8 hours ago
0 STARLINK-1227
1 45230U 20012BE  25351.29287114  .00003391  00000-0  24630-3 0  9993
2 45230  53.0551  16.5118 0001249  87.1380 272.9752 15.06420676322996
Epoch: 2025-12-17T07:01Z
TLE epoch observation values (Epoch: 2025-12-17T07:01:44.066Z)
Latitude
-0.00002°
Longitude
-175.08664°
Altitude
547.983 km
Speed
7.589 km/s
True Right ascension
01h 06m 02s
True Declination
0° 00' 00"
Sunlit
Object was in daylight at epoch
Visualization orbit readout
Latitude
Unknown
Longitude
Unknown
Altitude
Unknown
Speed
Unknown
Apparent Right ascension
Unknown
Apparent Declination
Unknown
Sunlit
N/A
Visualization observer readout
Local Sidereal Time
13:58:58
Azimuth
Unknown
Elevation
Unknown
Doppler factor
Unknown
Orbital elements
Apogee altitude
548.284 km
Perigee altitude
546.554 km
Semi-major axis
6,925.556 km
Eccentricity
0.00012
Inclination
53.0551°
RAAN
16.5118°
Arg. of periapsis
87.138°
True anomaly
272.96091°
Mean anomaly
272.9752°
Eccentric anomaly
272.96805°
Mean motion
3.76583 °/min
Orbital period
95.6 mins
BSTAR
0.0002463
Loading maneuver chart data...
Computing Atmospheric mass density...

Documentation

Showing up to 5 results
|